ROBUSTA-1E (ENSO)

Last updated on Sat Aug 30 2025 00:03:48 GMT+0000 (Coordinated Universal Time)

1 58470U 23185J 25241.32008667 .00118368 00000+0 11514-2 0 9999 2 58470 97.3649 319.5283 0006290 152.4739 207.6855 15.65882994 97627
UTC large
Height (km)
Speed (km/s)
/
Latitude / Longitude
Inclination (degrees)
Orbital Period (minutes)
Azimuth
Elevation
Range (km)
Doppler Factor

Next 0 passes for location: London (51.5072 / 0.1276)

Sorry there are no passes over London.